Regional Weather Roundup
Issued by NWS New Orleans/Baton Rouge, LA

Home | Current Version | Previous Version | Text Only | Print | Product List | Glossary On
Versions: 1 2 3 4 5 6 7 8 9 10 11 12 13 14 15 16 17 18 19 20 21 22 23 24 25 26 27 28 29 30 31 32 33 34 35 36 37 38 39 40 41 42 43 44 45 46 47 48 49 50
134
ASUS44 KLIX 151805
RWRLIX
NEW ORLEANS REGIONAL WEATHER ROUNDUP
NATIONAL WEATHER SERVICE NEW ORLEANS LA
100 PM CDT TUE APR 15 2014

NOTE: "FAIR" INDICATES FEW OR NO CLOUDS BELOW 12,000 FEET WITH NO
      SIGNIFICANT WEATHER AND/OR OBSTRUCTIONS TO VISIBILITY.
      SKY/WX - SKY CONDITION AND SIGNIFICANT WEATHER.
      TMP - AIR TEMPERATURE.     DP    - DEWPOINT TEMPERATURE.
      RH  - RELATIVE HUMIDITY.   PRES  - PRESSURE.
      HI  - HEAT INDEX.          WCI   - WIND CHILL INDEX.

*  THESE STATIONS ARE NOT NWS OR FAA STATIONS AND ARE NOT UNDER
   NWS QUALITY CONTROL.

LAZ038-040-048-061>063-065>067-069-151900-
SOUTHEAST LOUISIANA

CITY           SKY/WX    TMP DP  RH WIND       PRES   REMARKS
N.O. AUDUBON     N/A     57  39  52 MISG        N/A
6HR MIN TEMP:  49; 6HR MAX TEMP:  57;

N.O. INTL ARPT MOSUNNY   56  39  53 N18G24    30.12F
6HR MIN TEMP:  47; 6HR MAX TEMP:  56;

N.O. LAKEFRONT SUNNY     56  41  57 N22G31    30.12F
6HR MIN TEMP:  48; 6HR MAX TEMP:  56;

N.O. DOWNTOWN*   N/A     55  36  47 NW15G23   30.12F
6HR MIN TEMP:  48; 6HR MAX TEMP:  55;

SLIDELL        SUNNY     56  35  45 N15G29    30.10F
6HR MIN TEMP:  46; 6HR MAX TEMP:  56;

BATON ROUGE    SUNNY     58  31  35 N10G25    30.14F
6HR MIN TEMP:  45; 6HR MAX TEMP:  58;

BOOTHVILLE     CLOUDY    52  42  69 N23G33    30.10F
6HR MIN TEMP:  50; 6HR MAX TEMP:  54; 6HR PCP: TRACE;

BELLE CHASSE   MOSUNNY   55  37  50 N13G25    30.10F
6HR MIN TEMP:  48; 6HR MAX TEMP:  55;

BOGALUSA*        N/A     56  32  39 N23G30    30.14F
6HR MIN TEMP:  46; 6HR MAX TEMP:  56;

GALLIANO*      NOT AVBL
NEW ROADS*     NOT AVBL
GONZALES*        N/A     56  37  49 N10G23    30.13F
6HR MIN TEMP:  45; 6HR MAX TEMP:  56;

HAMMOND*       NOT AVBL
HOUMA*         MOSUNNY   55  37  50 N14G22    30.12F
PORT FOURCHON* PTCLDY    54  41  62 N18G31    30.13F

$$

MSZ070-080>082-151900-
SOUTHERN MISSISSIPPI

CITY           SKY/WX    TMP DP  RH WIND       PRES   REMARKS
MCCOMB         SUNNY     54  25  32 N17G26    30.14F
6HR MIN TEMP:  42; 6HR MAX TEMP:  54;

GULFPORT       SUNNY     58  36  43 N22G31    30.08F
6HR MIN TEMP:  49; 6HR MAX TEMP:  58;

BILOXI         MOSUNNY   54  39  56 N18G26    30.08F
6HR MIN TEMP:  47; 6HR MAX TEMP:  54;

PASCAGOULA     PTSUNNY   53  39  59 N21G31    30.08F
6HR MIN TEMP:  47; 6HR MAX TEMP:  53;

STENNIS ARPT*  SUNNY     55  36  47 N23G31    30.10F

$$

COASTAL OBSERVATIONS
LAKE AND NEARSHORE STATIONS

STATION/POSITION TIME  TEMP    WIND        PRES    WAVE
                       AIR SEA DIR/SP/G            HT/PER
                 (UTC) (F)     (DEG/KT/KT) (MB)    (FT/S)
PASCAGOULA       1800   51     350/ 18/ 25 1017.9
WAVELAND YACHT   1800   52 66  350/ 20/ 29 1018.2
GRAND ISLE       1800   53 67  350/ 21/ 26 1019.7
SOUTHWEST PASS   1800   54 58  360/ 26/ 31 1019.6
NEW CANAL        1800   53 65  360/ 21/ 26 1020.1
SHELL BEACH      1800   52 64  340/ 20/ 24 1019.2

OFFSHORE STATIONS

STATION/POSITION TIME  TEMP    WIND        PRES    WAVE
                       AIR SEA DIR/SP/G            HT/PER
                 (UTC) (F)     (DEG/KT/KT) (MB)    (FT/S)
64 S DAUPHIN ISL 1800   54 67  340/ 29     1017.4

$$




USA.gov is the U.S. government's official web portal to all federal, state and local government web resources and services.